EW3511 Weather Reports


time (UTC)temp
C
wind
direction
speed
KPH
gust
KPH
rain 1hr
cm
rain 24hr
cm
rain mn
cm
humidity
%
barometer
mb
20260504034034 12 0.0 0.0 0.00 0.00 0.00 74 1014.6
20260504033034 12 0.0 0.0 0.00 0.00 0.00 73 1014.6
20260504032037 12 0.0 0.0 0.00 0.00 0.00 72 1014.5
20260504031035 12 0.0 0.0 0.00 0.00 0.00 71 1014.6
20260504030035 13 0.0 0.0 0.00 0.00 0.00 70 1014.6
20260504025036 13 144 0.0 1.6 0.00 0.00 0.00 68 1014.6
20260504024037 13 131 0.0 1.6 0.00 0.00 0.00 69 1014.7
20260504023036 13 119 0.0 1.6 0.00 0.00 0.00 68 1014.7
20260504022037 13 113 0.0 3.2 0.00 0.00 0.00 67 1014.9
20260504021037 14 173 0.0 3.2 0.00 0.00 0.00 66 1014.7
20260504020038 14 154 1.6 8.0 0.00 0.00 0.00 66 1014.7
20260504015039 14 154 1.6 3.2 0.00 0.00 0.00 67 1014.8
20260504014038 15 108 0.0 3.2 0.00 0.00 0.00 67 1014.8
20260504013039 15 221 1.6 9.7 0.00 0.00 0.00 67 1014.6
20260504012040 15 122 1.6 4.8 0.00 0.00 0.00 67 1014.6
20260504011040 15 135 1.6 4.8 0.00 0.00 0.00 65 1014.6
20260504010040 15 114 1.6 3.2 0.00 0.00 0.00 64 1014.4
20260504005041 15 128 1.6 12.9 0.00 0.00 0.00 64 1014.4
20260504004101 15 141 3.2 11.3 0.00 0.00 0.00 65 1014.3
20260504003042 16 97 1.6 9.7 0.00 0.00 0.00 65 1014.3
20260504002042 16 88 1.6 3.2 0.00 0.00 0.00 64 1014.1
20260504001042 16 122 3.2 8.0 0.00 0.00 0.00 63 1014.0
20260504000044 16 131 1.6 14.5 0.00 0.00 0.00 62 1013.9
20260503235043 16 218 3.2 14.5 0.00 0.00 0.00 61 1013.8
20260503234044 16 131 1.6 3.2 0.00 0.00 0.00 60 1013.8
20260503233044 16 154 3.2 9.7 0.00 0.00 0.00 59 1013.6
20260503232045 16 200 3.2 8.0 0.00 0.00 0.00 58 1013.5
20260503231045 15 208 1.6 11.3 0.00 0.00 0.00 59 1013.3
20260503230045 15 142 0.0 1.6 0.00 0.00 0.00 60 1013.2
20260503225045 15 115 0.0 1.6 0.00 0.00 0.00 60 1013.1
20260503224047 15 0.0 0.0 0.00 0.00 0.00 59 1013.1
20260503223127 15 0.0 0.0 0.00 0.00 0.00 59 1013.0
20260503222048 15 93 0.0 1.6 0.00 0.00 0.00 59 1012.9
20260503221109 15 56 0.0 1.6 0.00 0.00 0.00 59 1012.8
20260503220048 15 93 0.0 1.6 0.00 0.00 0.00 60 1012.7
20260503215108 15 0.0 0.0 0.00 0.00 0.00 61 1012.8
20260503214048 16 0.0 0.0 0.00 0.00 0.00 58 1012.5
20260503213049 16 120 0.0 8.0 0.00 0.00 0.00 56 1012.2
20260503212130 15 332 0.0 3.2 0.00 0.00 0.00 59 1012.2
20260503211049 15 0.0 0.0 0.00 0.00 0.00 59 1012.1
20260503210051 16 0.0 0.0 0.00 0.00 0.00 57 1012.1
20260503205050 16 0.0 0.0 0.00 0.00 0.00 56 1012.0
20260503204111 16 0.0 0.0 0.00 0.00 0.00 55 1012.0
20260503203052 17 0.0 0.0 0.00 0.00 0.00 54 1011.8
20260503202053 17 0.0 0.0 0.00 0.00 0.00 53 1011.9
20260503201112 17 0.0 1.6 0.00 0.00 0.00 53 1011.8
20260503200113 17 155 0.0 1.6 0.00 0.00 0.00 54 1011.7
20260503195053 17 0.0 0.0 0.00 0.00 0.00 53 1011.7
20260503194054 17 0.0 0.0 0.00 0.00 0.00 52 1011.7
20260503193054 18 0.0 0.0 0.00 0.00 0.00 50 1011.6
20260503192114 18 93 0.0 1.6 0.00 0.00 0.00 50 1011.6
20260503191055 19 0.0 1.6 0.00 0.00 0.00 49 1011.5
20260503190056 19 142 1.6 3.2 0.00 0.00 0.00 49 1011.4
20260503185057 19 90 1.6 3.2 0.00 0.00 0.00 50 1011.4
20260503184056 20 83 0.0 1.6 0.00 0.00 0.00 49 1011.1
20260503183057 20 87 1.6 3.2 0.00 0.00 0.00 49 1011.0
20260503182057 20 0.0 0.0 0.00 0.00 0.00 50 1010.9
20260503181118 21 90 0.0 3.2 0.00 0.00 0.00 45 1010.8
20260503180058 21 67 1.6 4.8 0.00 0.00 0.00 44 1010.6
20260503175118 21 62 1.6 4.8 0.00 0.00 0.00 46 1010.6
20260503174059 22 80 0.0 3.2 0.00 0.00 0.00 45 1010.5
20260503173119 22 82 1.6 3.2 0.00 0.00 0.00 46 1010.5
20260503172059 23 50 1.6 11.3 0.00 0.00 0.00 42 1010.6
20260503171101 24 4 3.2 9.7 0.00 0.00 0.00 39 1010.5
20260503160123 26 68 1.6 3.2 0.00 0.00 0.00 36 1010.2
20260503131058 26 0 3.2 11.3 0.00 0.00 0.00 31 1011.6
20260503090108 22 139 0.0 1.6 0.00 0.00 0.00 45 1014.8
20260503081050 20 116 3.2 4.8 0.00 0.00 0.00 48 1015.2
20260503080110 20 93 1.6 8.0 0.00 0.00 0.00 47 1015.2
20260503072052 18 157 1.6 3.2 0.00 0.00 0.00 50 1015.3
20260503071053 18 121 1.6 4.8 0.00 0.00 0.00 50 1015.2
20260503060116 15 0.0 0.0 0.00 0.00 0.00 62 1015.3
20260503055056 15 0.0 0.0 0.00 0.00 0.00 60 1015.3
20260503054057 12 0.0 0.0 0.00 0.00 0.00 68 1015.2
20260503053058 10 0.0 0.0 0.00 0.00 0.00 74 1015.2
20260503052117 10 93 0.0 1.6 0.00 0.00 0.00 75 1015.4
20260503051118 8 0.0 0.0 0.00 0.00 0.00 78 1015.3
20260503050138 10 0.0 0.0 0.00 0.00 0.00 76 1015.4
20260503045058 8 0.0 0.0 0.00 0.00 0.00 79 1015.4
20260503044059 7 122 0.0 1.6 0.00 0.00 0.00 82 1015.3
20260503043101 6 0.0 0.0 0.00 0.00 0.00 87 1015.2
20260503042032 6 0.0 0.0 0.00 0.00 0.00 89 1015.2
20260503041032 5 0.0 0.0 0.00 0.00 0.00 89 1015.2
20260503040036 5 0.0 0.0 0.00 0.00 0.00 89 1015.1
20260503035033 5 0.0 0.0 0.00 0.00 0.00 89 1015.1